SL-14 DEB

Satellite information

Favourite Embed

Satellite Type and Status

DEBRISIN ORBIT

Key statistics

Satellite SL-14 DEB at a glance.

Uptime

12501

Days in orbit

Revolutions

≈ 12.9

Per day

Orbit

LEO

Low Earth Orbit

Inclination

82.6

Latest

Satellite identification and parameters

Extended collection of information and parameters for SL-14 DEB.

Object identification

Identified? True

Debris? True

Object name: SL-14 DEB

International designator: 1991-056AA

Object number (NORAD): 45288

Object ID (CCSDS): 45288

Country: COMMONWEALTH OF INDEPENDENT STATES (CIS)

Current information (Y/N): Y

RCS size: SMALL

Orbital parameters

Period: 111.747 minutes

Inclination: 82.623 deg

SMA: 7685.119 km

Apoapsis: 1472.765 km

Periapsis: 1141.202 km

RAAN: 38.834 deg

Eccentricy: 0.0215717

Argument of periapsis: 50.2424 deg

Mean anomaly: 311.7466 deg

Mean motion: 12.88626052 rev/day

Mean motion (dot): -0.00000296 rev/day2

B* drag term: -0.0010876 1/REarth

Two-line elements (TLE)

Creation date: Nov. 4, 2025, 11:56 p.m.

Reference frame: TEME

Reference center: EARTH

Epoch: Nov. 4, 2025, 4:52 p.m. UTC

TLE line 0: 0 SL-14 DEB

TLE line 1: 1 45288U 91056AA 25308.70318602 -.00000296 00000-0 -10876-2 0 9996

TLE line 2: 2 45288 82.6230 38.8340 0215717 50.2424 311.7466 12.88626052267414

Live tracking on map

Real-time ground track for satellite SL-14 DEB.

In-orbit conjunctions

A list of the most updated potential collisions computed for object SL-14 DEB.

Target Orbit TCA Probability of collision Miss distance Type
COSMOS 1388 LEO 2025-11-04 03:17:07 0.0001136626 953.0 (m) PAYLOAD
COSMOS 337 LEO 2024-10-27 09:38:33 0.0006381162 211.0 (m) PAYLOAD

Associated space launch

Third generation meteorological satellite

SL-14 DEB was lifted into orbit during the mission ‘Tsiklon-3 | Meteor-3 5’, on board a Tsiklon-3 space rocket.

The launch took place on Aug. 15, 1991, 9:15 a.m. from 32/2.

For more information about the launch, click the button.

Launch to space Tsiklon-3 | Meteor-3 5
Tsiklon-3 | Meteor-3 5

Agency: N/A

Status: Launch Successful

Launch date: Aug. 15, 1991, 9:15 a.m. UTC

Rocket: Tsiklon-3

Launch pad: 32/2

Location: Plesetsk Cosmodrome, Russian Federation

...

Latest news about this satellite

There are no fresh news available about this satellite. Check back as we update our databases every day.


Newsletter sign-up

Weekly statistics, charts and insights to help you stay on top of the space industry.